Location: Muenchen
(48.1800°N, 11.5800°E)
Time: 08:23:50
(UTC+02:00)

Tiros 1 - Visible Passes

Search period start: 22 October 2014 00:00
Search period end: 31 October 2014 23:00
Orbit: 633 x 667 km, 48.4° (Epoch: 21 October)

Date Brightness Start Highest point End Pass type
(mag) Time Alt. Az. Time Alt. Az. Time Alt. Az.
22 Oct 10.0 03:59:54 13° E 03:59:54 13° E 04:00:24 10° E visible
22 Oct 7.4 05:37:39 47° SSW 05:37:48 47° SSW 05:42:19 10° SE visible
23 Oct 9.5 04:26:10 18° ESE 04:26:10 18° ESE 04:27:26 10° ESE visible
23 Oct 8.2 06:03:56 26° SW 06:04:36 27° SW 06:08:34 10° SSE visible
24 Oct 9.1 04:52:32 21° SE 04:52:32 21° SE 04:54:14 10° SE visible
24 Oct 9.0 06:30:17 14° WSW 06:31:12 15° SW 06:33:45 10° S visible
25 Oct 9.1 05:18:59 18° S 05:18:59 18° S 05:20:32 10° SSE visible
26 Oct 9.5 04:45:32 11° S 04:45:32 11° S 04:45:48 10° S visible
30 Oct 9.5 19:01:55 10° S 19:02:06 11° SSE 19:02:06 11° SSE visible
31 Oct 9.1 19:27:04 10° SSW 19:28:28 17° S 19:28:28 17° S visible
